Location: Clanezzo
(45.7500°N, 9.6000°E)
Time: 09:00:56
(UTC+00:00)

CUTE-I - Pass Details

Date: 12 December 2023
Orbit: 807 x 823 km, 98.7° (Epoch: 02 March)

Event Time Altitude Azimuth Distance (km) Brightness Sun altitude
Rises 17:23:55 0° 187° (S) 3,315 ? -17.8°
Reaches altitude 10° 17:26:24 10° 195° (SSW) 2,391 ? -18.2°
Maximum altitude 17:31:18 38° 263° (W) 1,226 ? -19.0°
Drops below altitude 10° 17:36:16 10° 331° (NNW) 2,417 ? -19.9°
Sets 17:38:48 0° 339° (NNW) 3,357 ? -20.3°
